Location: ??????
(42.0089°N, 44.3281°E)
Time: 19:24:43
(UTC+00:00)

CZ-2C R/B - Pass Details

Date: 03 June 2022
Orbit: 785 x 869 km, 98.2° (Epoch: 25 June)

Event Time Altitude Azimuth Distance (km) Brightness Sun altitude
Rises 00:53:35 0° 145° (SE) 3,282 5.8 -6.2°
Reaches altitude 10° 00:56:00 10° 138° (SE) 2,366 5.1 -5.9°
Maximum altitude 01:00:52 41° 69° (ENE) 1,161 4.2 -5.2°
Drops below altitude 10° 01:05:51 10° 1° (N) 2,428 5.7 -4.4°
Sets 01:08:20 0° 354° (N) 3,378 6.3 -4.0°
